Hourly Weather Cerqueira Cesar

Today, 25 June, Friday

Time Temperature Precipitation Wind Pressure Humidity
00:00 +18°C° 0 mm 2 mps 699 mmHg 67%
01:00 +17°C° 0 mm 2 mps 699 mmHg 68%
02:00 +17°C° 0 mm 2 mps 698 mmHg 69%
03:00 +17°C° 0 mm 2 mps 698 mmHg 71%
04:00 +16°C° 0 mm 1 mps 698 mmHg 72%
05:00 +16°C° 0 mm 1 mps 699 mmHg 72%
06:00 +16°C° 0 mm 1 mps 699 mmHg 73%
07:00 +18°C° 0 mm 2 mps 699 mmHg 67%
08:00 +19°C° 0 mm 2 mps 700 mmHg 61%
09:00 +21°C° 0 mm 2 mps 701 mmHg 55%
10:00 +24°C° 0 mm 2 mps 701 mmHg 49%
11:00 +26°C° 0 mm 2 mps 701 mmHg 44%
12:00 +28°C° 0 mm 3 mps 702 mmHg 39%
13:00 +28°C° 0 mm 3 mps 701 mmHg 37%
14:00 +29°C° 0 mm 3 mps 701 mmHg 35%
15:00 +29°C° 0 mm 3 mps 700 mmHg 34%
16:00 +27°C° 0 mm 2 mps 700 mmHg 39%
17:00 +25°C° 0 mm 2 mps 700 mmHg 45%
18:00 +23°C° 0 mm 1 mps 699 mmHg 50%
19:00 +22°C° 0 mm 1 mps 700 mmHg 53%
20:00 +21°C° 0 mm 1 mps 700 mmHg 55%
21:00 +20°C° 0 mm 1 mps 700 mmHg 57%
22:00 +20°C° 0 mm 1 mps 700 mmHg 61%
23:00 +18°C° 0 mm 2 mps 700 mmHg 65%

Tomorrow, 26 June, Saturday

Time Temperature Precipitation Wind Pressure Humidity
00:00 +17°C° 0 mm 2 mps 700 mmHg 69%
01:00 +17°C° 0 mm 2 mps 700 mmHg 73%
02:00 +16°C° 0 mm 2 mps 699 mmHg 77%
03:00 +16°C° 0 mm 2 mps 699 mmHg 81%
04:00 +15°C° 0 mm 2 mps 699 mmHg 84%
05:00 +15°C° 0 mm 2 mps 699 mmHg 88%
06:00 +14°C° 0 mm 3 mps 699 mmHg 91%
07:00 +16°C° 0 mm 3 mps 700 mmHg 84%
08:00 +18°C° 0 mm 3 mps 701 mmHg 77%
09:00 +19°C° 0 mm 4 mps 701 mmHg 70%
10:00 +22°C° 0 mm 4 mps 702 mmHg 60%
11:00 +25°C° 0 mm 4 mps 702 mmHg 50%
12:00 +27°C° 0 mm 5 mps 702 mmHg 40%
13:00 +28°C° 0 mm 4 mps 701 mmHg 39%
14:00 +28°C° 0 mm 4 mps 701 mmHg 38%
15:00 +28°C° 0 mm 4 mps 700 mmHg 36%
16:00 +26°C° 0 mm 3 mps 700 mmHg 41%
17:00 +25°C° 0 mm 2 mps 699 mmHg 46%
18:00 +23°C° 0 mm 1 mps 699 mmHg 51%
19:00 +21°C° 0 mm 2 mps 699 mmHg 53%
20:00 +20°C° 0 mm 2 mps 700 mmHg 55%
21:00 +20°C° 0 mm 2 mps 700 mmHg 57%
22:00 +19°C° 0 mm 2 mps 700 mmHg 58%
23:00 +19°C° 0 mm 2 mps 700 mmHg 59%

Day after tomorrow, 27 June, Sunday

Time Temperature Precipitation Wind Pressure Humidity
00:00 +18°C° 0 mm 2 mps 700 mmHg 60%
01:00 +18°C° 0 mm 2 mps 699 mmHg 60%
02:00 +18°C° 0 mm 2 mps 699 mmHg 60%
03:00 +17°C° 0 mm 2 mps 699 mmHg 61%
04:00 +17°C° 0 mm 2 mps 699 mmHg 62%
05:00 +17°C° 0 mm 3 mps 699 mmHg 62%
06:00 +16°C° 0 mm 3 mps 699 mmHg 63%
07:00 +18°C° 0 mm 4 mps 700 mmHg 59%
08:00 +20°C° 0 mm 5 mps 700 mmHg 54%
09:00 +21°C° 0 mm 6 mps 701 mmHg 49%
10:00 +23°C° 0 mm 6 mps 701 mmHg 43%
11:00 +26°C° 0 mm 6 mps 701 mmHg 37%
12:00 +28°C° 0 mm 6 mps 701 mmHg 30%
13:00 +29°C° 0 mm 6 mps 700 mmHg 29%
14:00 +29°C° 0 mm 5 mps 700 mmHg 27%
15:00 +30°C° 0 mm 5 mps 699 mmHg 25%
16:00 +28°C° 0 mm 4 mps 699 mmHg 29%
17:00 +25°C° 0 mm 3 mps 699 mmHg 34%
18:00 +23°C° 0 mm 2 mps 699 mmHg 39%
19:00 +21°C° 0 mm 2 mps 699 mmHg 40%
20:00 +20°C° 0 mm 2 mps 699 mmHg 42%
21:00 +20°C° 0 mm 2 mps 699 mmHg 43%
22:00 +19°C° 0 mm 2 mps 699 mmHg 42%
23:00 +19°C° 0 mm 2 mps 699 mmHg 42%

28 June, Monday

Time Temperature Precipitation Wind Pressure Humidity
00:00 +18°C° 0 mm 3 mps 699 mmHg 41%
01:00 +18°C° 0 mm 2 mps 699 mmHg 42%
02:00 +17°C° 0 mm 2 mps 699 mmHg 43%
03:00 +16°C° 0 mm 2 mps 699 mmHg 44%
04:00 +16°C° 0 mm 2 mps 699 mmHg 45%
05:00 +16°C° 0 mm 2 mps 699 mmHg 46%
06:00 +15°C° 0 mm 2 mps 700 mmHg 46%
07:00 +17°C° 0 mm 2 mps 700 mmHg 45%
08:00 +18°C° 0 mm 3 mps 701 mmHg 43%
09:00 +19°C° 0 mm 3 mps 701 mmHg 42%
10:00 +21°C° 0 mm 3 mps 702 mmHg 39%
11:00 +23°C° 0 mm 4 mps 702 mmHg 36%
12:00 +26°C° 0 mm 4 mps 702 mmHg 33%
13:00 +27°C° 0 mm 4 mps 701 mmHg 33%
14:00 +27°C° 0 mm 4 mps 701 mmHg 33%
15:00 +28°C° 0 mm 5 mps 701 mmHg 33%
16:00 +25°C° 0 mm 4 mps 701 mmHg 42%
17:00 +22°C° 0 mm 4 mps 701 mmHg 51%
18:00 +20°C° 0 mm 3 mps 701 mmHg 60%
19:00 +18°C° 0 mm 3 mps 701 mmHg 67%
20:00 +17°C° 0 mm 3 mps 701 mmHg 73%
21:00 +16°C° 0 mm 2 mps 701 mmHg 80%
22:00 +15°C° 0 mm 2 mps 701 mmHg 84%
23:00 +14°C° 0 mm 2 mps 702 mmHg 87%

29 June, Tuesday

Time Temperature Precipitation Wind Pressure Humidity
00:00 +14°C° 0 mm 1 mps 702 mmHg 91%
01:00 +13°C° 0 mm 1 mps 702 mmHg 92%
02:00 +13°C° 0 mm 1 mps 701 mmHg 94%
03:00 +13°C° 0 mm 1 mps 701 mmHg 96%
04:00 +13°C° 0 mm 1 mps 701 mmHg 94%
05:00 +13°C° 0 mm 1 mps 702 mmHg 93%
06:00 +14°C° 0 mm 1 mps 702 mmHg 91%
07:00 +14°C° 0 mm 1 mps 702 mmHg 88%
08:00 +15°C° 0 mm 1 mps 703 mmHg 84%
09:00 +16°C° 0 mm 1 mps 703 mmHg 80%
10:00 +17°C° 0 mm 2 mps 703 mmHg 74%
11:00 +19°C° 0 mm 2 mps 703 mmHg 67%
12:00 +20°C° 0 mm 2 mps 704 mmHg 61%
13:00 +18°C° 0 mm 3 mps 703 mmHg 69%
14:00 +14°C° 0 mm 3 mps 703 mmHg 76%
15:00 +12°C° 0 mm 3 mps 702 mmHg 84%
16:00 +12°C° 0.1 mm 3 mps 703 mmHg 86%
17:00 +11°C° 0.1 mm 3 mps 703 mmHg 89%
18:00 +11°C° 0.1 mm 3 mps 703 mmHg 91%
19:00 +12°C° 0 mm 2 mps 703 mmHg 91%
20:00 +12°C° 0 mm 2 mps 703 mmHg 90%
21:00 +11°C° 0 mm 1 mps 703 mmHg 90%
22:00 +11°C° 0 mm 1 mps 703 mmHg 90%
23:00 +10°C° 0 mm 1 mps 702 mmHg 89%

30 June, Wednesday

Time Temperature Precipitation Wind Pressure Humidity
00:00 +10°C° 0 mm 1 mps 702 mmHg 88%
01:00 +10°C° 0 mm 1 mps 702 mmHg 86%
02:00 +9°C° 0 mm 1 mps 702 mmHg 83%
03:00 +9°C° 0 mm 1 mps 701 mmHg 80%
04:00 +8°C° 0 mm 1 mps 701 mmHg 81%
05:00 +7°C° 0 mm 1 mps 701 mmHg 82%
06:00 +7°C° 0 mm 1 mps 701 mmHg 83%
07:00 +8°C° 0 mm 1 mps 702 mmHg 80%
08:00 +10°C° 0 mm 1 mps 702 mmHg 77%
09:00 +12°C° 0 mm 2 mps 703 mmHg 75%
10:00 +14°C° 0 mm 1 mps 703 mmHg 61%
11:00 +18°C° 0 mm 1 mps 703 mmHg 48%
12:00 +20°C° 0 mm 1 mps 703 mmHg 35%
13:00 +21°C° 0 mm 1 mps 703 mmHg 31%
14:00 +21°C° 0 mm 1 mps 702 mmHg 28%
15:00 +21°C° 0 mm 2 mps 701 mmHg 24%
16:00 +19°C° 0 mm 2 mps 701 mmHg 30%
17:00 +16°C° 0 mm 2 mps 701 mmHg 36%
18:00 +14°C° 0 mm 2 mps 700 mmHg 41%
19:00 +12°C° 0 mm 2 mps 701 mmHg 46%
20:00 +10°C° 0 mm 2 mps 701 mmHg 51%
21:00 +10°C° 0 mm 1 mps 701 mmHg 56%
22:00 +10°C° 0 mm 1 mps 701 mmHg 57%
23:00 +8°C° 0 mm 2 mps 701 mmHg 59%
Show more

We Need Your Consent

Meteoprog and our Service Providers may store and access personal data such as cookies, device identifiers or other similar technologies on your device and process such data to personalise content and ads, as well as provide social media features and to analyse the traffic.

  • Store and/or access information on your device

    Cookies, device identifiers or other information can be stored or accessed on your device for the purposes indicated above.

  • Personalised ads and content, ad and content measurement, audience insights, and products development

    Ads and content can be personalised based on a profile. More data can be added to better personalise ads and content. Ad and content performance can be measured. Insights about the audience who saw the ads and content can be derived. Such data can be used to develop or improve user’s experience, systems and software.

By clicking ‘I Agree’ you will allow the use of indicated cookies, device identifiers, web beacons or other similar technologies. Your settings can be changed in the browser on your device.

For certain purposes, legitimate interests may be relied on, rather than consent. You can read more about this in our Privacy and Cookie Policy.